User: anonymous   Login
Location: Hamilton
(37.7830°S, 175.2830°E)
Time: 21:30:41
(UTC+13:00)
Language:

Atlas Centaur 2 - Orbit

View from above orbital plane
View from above orbital plane
View from above satellite
View from above satellite

Ground track
Ground track

The orbit data is extracted from the following two-line orbital elements,

1   694U 63047A   19295.82506808 +.00000216 +00000-0 +12222-4 0  9994
2   694 030.3593 124.6303 0586319 274.9684 078.4265 14.02523001803578
Epoch (UTC): 22 October 2019 19:48:05
Eccentricity: 0.0586319
inclination: 30.3593°
perigee height: 459 km
apogee height: 1311 km
right ascension of ascending node: 124.6303°
argument of perigee: 274.9684°
revolutions per day: 14.02523001
mean anomaly at epoch: 78.4265°
orbit number at epoch: 80357

The dashed part of the orbit path shows where the satellite is in the earth's shadow,  

DLR